Find Starlink 31280

NORAD ID: 58843 Int'l Des: 2024-017 Owner: SPXS Country: US Constellation: starlink operational
LEOCIRCULAR

当前视图

正在加载3D地球...

About Starlink 31280

Starlink 31280 (NORAD 58843) is a starlink constellation satellite (v2 mini) launched Jan 24, 2024 by SPXS of US. It operates in LEO, CIRCULAR orbit with a mass of 730.00 kg.

关于 Starlink 31280

正在加载描述...

即将过境

Passes for default location (London). Set your location on the main map for personalized predictions.

高度历史

Loading altitude history...

两行轨道根数

1 58843U 24017T 26175.02041772 .00001773 00000-0 71976-4 0 9998
2 58843 53.1589 70.5841 0001326 110.4512 249.6631 15.30199823136330
Epoch: Jun 24, 2026 • Age: 32 hours

当前状态

高度 476.2 km
速度 7.63 km/s
星下点 30.91°N, 177.64°E
发射日期 Jan 24, 2024
运行时间 2.4 years
类型 internet

技术详情

分类 Payload
质量 730.00 kg
干质量 700.00 kg
总质量 730.00 kg
长度 0.30 m
直径 4.10 m
跨度 29.00 m
形状 Box + pan
制造商 SPXS
平台类型 Starlink V2M
阶段状态 In Orbit
所有者/国家 SPXS/US

Most Searched